• In United Kingdom
  • List of Countries
  • For 7 days
  • Water Temperature
  • Satellite Maps
  • Weather Map
  • Weather Widgets
  • user-avatar
    Login

    Hourly Weather Buenos Aires

    Today, 22 November, Wednesday

    Time Temperature Precipitation Wind Pressure Humidity
    00:00 +14°C° 0 mm 3 mps 761 mmHg 61%
    01:00 +14°C° 0 mm 3 mps 761 mmHg 62%
    02:00 +13°C° 0 mm 3 mps 761 mmHg 64%
    03:00 +13°C° 0 mm 3 mps 761 mmHg 64%
    04:00 +13°C° 0 mm 3 mps 761 mmHg 65%
    05:00 +12°C° 0 mm 4 mps 761 mmHg 66%
    06:00 +14°C° 0 mm 4 mps 761 mmHg 60%
    07:00 +16°C° 0 mm 5 mps 761 mmHg 53%
    08:00 +19°C° 0 mm 5 mps 760 mmHg 47%
    09:00 +21°C° 0 mm 6 mps 760 mmHg 43%
    10:00 +23°C° 0 mm 6 mps 759 mmHg 39%
    11:00 +26°C° 0 mm 6 mps 759 mmHg 35%
    12:00 +27°C° 0 mm 6 mps 758 mmHg 34%
    13:00 +28°C° 0 mm 6 mps 757 mmHg 32%
    14:00 +29°C° 0 mm 6 mps 757 mmHg 31%
    15:00 +28°C° 0 mm 5 mps 756 mmHg 33%
    16:00 +28°C° 0 mm 4 mps 755 mmHg 35%
    17:00 +28°C° 0 mm 4 mps 755 mmHg 37%
    18:00 +26°C° 0 mm 3 mps 755 mmHg 41%
    19:00 +24°C° 0 mm 3 mps 755 mmHg 45%
    20:00 +21°C° 0 mm 2 mps 755 mmHg 50%
    21:00 +21°C° 0 mm 4 mps 755 mmHg 51%
    22:00 +20°C° 0 mm 5 mps 755 mmHg 53%
    23:00 +20°C° 0 mm 6 mps 755 mmHg 54%

    Tomorrow, 23 November, Thursday

    Time Temperature Precipitation Wind Pressure Humidity
    00:00 +20°C° 0 mm 7 mps 754 mmHg 51%
    01:00 +20°C° 0 mm 7 mps 754 mmHg 48%
    02:00 +20°C° 0 mm 7 mps 754 mmHg 45%
    03:00 +20°C° 0 mm 6 mps 754 mmHg 46%
    04:00 +19°C° 0 mm 5 mps 754 mmHg 47%
    05:00 +18°C° 0 mm 4 mps 755 mmHg 48%
    06:00 +20°C° 0 mm 5 mps 755 mmHg 44%
    07:00 +22°C° 0 mm 5 mps 755 mmHg 41%
    08:00 +25°C° 0 mm 5 mps 755 mmHg 37%
    09:00 +26°C° 0.1 mm 5 mps 755 mmHg 34%
    10:00 +28°C° 0.1 mm 5 mps 755 mmHg 32%
    11:00 +30°C° 0.1 mm 5 mps 755 mmHg 29%
    12:00 +32°C° 0.1 mm 4 mps 754 mmHg 28%
    13:00 +33°C° 0.1 mm 4 mps 754 mmHg 27%
    14:00 +34°C° 0.1 mm 3 mps 753 mmHg 26%
    15:00 +33°C° 0.4 mm 4 mps 753 mmHg 30%
    16:00 +32°C° 0.4 mm 4 mps 753 mmHg 34%
    17:00 +30°C° 0.4 mm 5 mps 753 mmHg 38%
    18:00 +27°C° 0 mm 6 mps 755 mmHg 42%
    19:00 +24°C° 0 mm 7 mps 756 mmHg 47%
    20:00 +21°C° 0 mm 8 mps 757 mmHg 52%
    21:00 +18°C° 0 mm 8 mps 758 mmHg 55%
    22:00 +17°C° 0 mm 7 mps 759 mmHg 57%
    23:00 +15°C° 0 mm 7 mps 760 mmHg 59%

    Day after tomorrow, 24 November, Friday

    Time Temperature Precipitation Wind Pressure Humidity
    00:00 +14°C° 0 mm 7 mps 760 mmHg 59%
    01:00 +13°C° 0 mm 6 mps 760 mmHg 58%
    02:00 +11°C° 0 mm 6 mps 760 mmHg 57%
    03:00 +10°C° 0 mm 5 mps 761 mmHg 58%
    04:00 +9°C° 0 mm 5 mps 761 mmHg 58%
    05:00 +10°C° 0 mm 4 mps 761 mmHg 58%
    06:00 +11°C° 0 mm 4 mps 761 mmHg 55%
    07:00 +13°C° 0 mm 4 mps 762 mmHg 52%
    08:00 +14°C° 0 mm 4 mps 762 mmHg 48%
    09:00 +16°C° 0 mm 3 mps 762 mmHg 47%
    10:00 +18°C° 0 mm 3 mps 762 mmHg 45%
    11:00 +19°C° 0 mm 3 mps 762 mmHg 43%
    12:00 +19°C° 0.1 mm 3 mps 762 mmHg 45%
    13:00 +19°C° 0.1 mm 3 mps 761 mmHg 48%
    14:00 +20°C° 0.1 mm 4 mps 761 mmHg 50%
    15:00 +19°C° 0.2 mm 4 mps 760 mmHg 55%
    16:00 +18°C° 0.2 mm 4 mps 760 mmHg 59%
    17:00 +18°C° 0.2 mm 4 mps 760 mmHg 64%
    18:00 +17°C° 0 mm 4 mps 761 mmHg 67%
    19:00 +17°C° 0 mm 4 mps 761 mmHg 70%
    20:00 +15°C° 0 mm 4 mps 761 mmHg 72%
    21:00 +15°C° 0 mm 4 mps 761 mmHg 75%
    22:00 +15°C° 0 mm 4 mps 761 mmHg 78%
    23:00 +14°C° 0 mm 3 mps 761 mmHg 81%

    25 November, Saturday

    Time Temperature Precipitation Wind Pressure Humidity
    00:00 +14°C° 0 mm 3 mps 761 mmHg 83%
    01:00 +14°C° 0 mm 3 mps 760 mmHg 85%
    02:00 +14°C° 0 mm 2 mps 760 mmHg 86%
    03:00 +14°C° 0 mm 2 mps 760 mmHg 88%
    04:00 +13°C° 0 mm 3 mps 760 mmHg 89%
    05:00 +13°C° 0 mm 3 mps 761 mmHg 90%
    06:00 +16°C° 0 mm 2 mps 761 mmHg 82%
    07:00 +18°C° 0 mm 2 mps 761 mmHg 74%
    08:00 +20°C° 0 mm 2 mps 761 mmHg 66%
    09:00 +23°C° 0 mm 2 mps 761 mmHg 58%
    10:00 +26°C° 0 mm 2 mps 761 mmHg 51%
    11:00 +28°C° 0 mm 2 mps 760 mmHg 44%
    12:00 +28°C° 0 mm 2 mps 760 mmHg 43%
    13:00 +28°C° 0 mm 2 mps 759 mmHg 43%
    14:00 +29°C° 0 mm 2 mps 758 mmHg 42%
    15:00 +29°C° 0 mm 2 mps 758 mmHg 42%
    16:00 +29°C° 0 mm 2 mps 757 mmHg 42%
    17:00 +29°C° 0 mm 1 mps 757 mmHg 42%
    18:00 +27°C° 0 mm 2 mps 757 mmHg 47%
    19:00 +25°C° 0 mm 2 mps 757 mmHg 52%
    20:00 +24°C° 0 mm 3 mps 757 mmHg 57%
    21:00 +22°C° 0 mm 3 mps 757 mmHg 60%
    22:00 +22°C° 0 mm 4 mps 757 mmHg 63%
    23:00 +21°C° 0 mm 4 mps 758 mmHg 66%

    26 November, Sunday

    Time Temperature Precipitation Wind Pressure Humidity
    00:00 +21°C° 0 mm 4 mps 757 mmHg 68%
    01:00 +20°C° 0 mm 3 mps 757 mmHg 70%
    02:00 +20°C° 0 mm 3 mps 756 mmHg 73%
    03:00 +20°C° 0 mm 3 mps 756 mmHg 74%
    04:00 +19°C° 0 mm 3 mps 756 mmHg 75%
    05:00 +19°C° 0 mm 3 mps 756 mmHg 76%
    06:00 +21°C° 0 mm 3 mps 756 mmHg 69%
    07:00 +24°C° 0 mm 3 mps 756 mmHg 62%
    08:00 +26°C° 0 mm 3 mps 756 mmHg 55%
    09:00 +28°C° 0 mm 3 mps 756 mmHg 48%
    10:00 +30°C° 0 mm 3 mps 755 mmHg 42%
    11:00 +33°C° 0 mm 3 mps 755 mmHg 35%
    12:00 +31°C° 0 mm 3 mps 754 mmHg 35%
    13:00 +31°C° 0 mm 3 mps 754 mmHg 36%
    14:00 +31°C° 0 mm 3 mps 753 mmHg 37%
    15:00 +30°C° 0 mm 3 mps 753 mmHg 38%
    16:00 +30°C° 0 mm 3 mps 752 mmHg 40%
    17:00 +29°C° 0 mm 3 mps 752 mmHg 42%
    18:00 +28°C° 0 mm 3 mps 752 mmHg 46%
    19:00 +27°C° 0 mm 3 mps 752 mmHg 50%
    20:00 +26°C° 0 mm 3 mps 753 mmHg 54%
    21:00 +25°C° 0 mm 4 mps 753 mmHg 55%
    22:00 +25°C° 0 mm 4 mps 753 mmHg 57%
    23:00 +23°C° 0 mm 4 mps 753 mmHg 59%

    27 November, Monday

    Time Temperature Precipitation Wind Pressure Humidity
    00:00 +23°C° 0 mm 4 mps 753 mmHg 60%
    01:00 +22°C° 0 mm 4 mps 752 mmHg 60%
    02:00 +22°C° 0 mm 4 mps 752 mmHg 61%
    03:00 +21°C° 0 mm 4 mps 752 mmHg 62%
    04:00 +21°C° 0 mm 4 mps 753 mmHg 63%
    05:00 +21°C° 0 mm 4 mps 753 mmHg 64%
    06:00 +22°C° 0.1 mm 4 mps 754 mmHg 63%
    07:00 +23°C° 0.1 mm 4 mps 754 mmHg 62%
    08:00 +25°C° 0.1 mm 4 mps 755 mmHg 62%
    09:00 +26°C° 0 mm 4 mps 755 mmHg 57%
    10:00 +27°C° 0 mm 5 mps 756 mmHg 52%
    11:00 +28°C° 0 mm 5 mps 756 mmHg 47%
    12:00 +26°C° 0.2 mm 6 mps 757 mmHg 55%
    13:00 +23°C° 0.2 mm 7 mps 758 mmHg 62%
    14:00 +21°C° 0.2 mm 8 mps 758 mmHg 70%
    15:00 +20°C° 0.8 mm 8 mps 759 mmHg 73%
    16:00 +18°C° 0.8 mm 7 mps 759 mmHg 77%
    17:00 +17°C° 0.8 mm 7 mps 760 mmHg 80%
    18:00 +16°C° 0 mm 7 mps 761 mmHg 76%
    19:00 +15°C° 0 mm 7 mps 761 mmHg 73%
    20:00 +14°C° 0 mm 7 mps 762 mmHg 69%
    21:00 +12°C° 0 mm 7 mps 763 mmHg 67%
    22:00 +13°C° 0 mm 6 mps 763 mmHg 65%
    23:00 +11°C° 0 mm 6 mps 764 mmHg 63%
    Show more